Sigfox identifier Datetime Temperature Humidity SNR
003BBBCD 2018-10-09 09:09:37 21.3 37 16.2
003BBBCD 2018-10-09 08:01:54 21.3 37 16.7
003BBBCD 2018-10-09 06:54:13 21.2 37 16.9
003BBBCD 2018-10-09 05:46:31 21.3 37 16.9
003BBBCD 2018-10-09 04:38:51 21.3 37 17
003BBBCD 2018-10-09 01:15:52 21.3 36 16.9
003BBBCD 2018-10-09 00:08:14 21.3 36 16.8
003BBBCD 2018-10-08 23:00:36 21.3 36 16.7
003BBBCD 2018-10-08 21:52:55 21.3 36 16.5
003BBBCD 2018-10-08 20:45:12 21.4 36 16.8
003BBBCD 2018-10-08 19:37:32 21.3 36 16.5
003BBBCD 2018-10-08 18:29:52 21.3 36 16.7
003BBBCD 2018-10-08 17:22:14 21.2 36 16.7
003BBBCD 2018-10-08 16:14:42 21.2 36 17.2
003BBBCD 2018-10-08 15:07:03 21.1 36 17.1
003BBBCD 2018-10-08 13:59:26 21 36 17.2
003BBBCD 2018-10-08 12:51:49 21 36 17.6
003BBBCD 2018-10-08 11:44:11 20.9 36 17.6
003BBBCD 2018-10-08 10:36:39 20.8 37 17.8
003BBBCD 2018-10-08 09:29:02 20.8 37 18.2
003BBBCD 2018-10-08 08:21:26 20.8 37 18.2
003BBBCD 2018-10-08 07:13:50 20.8 37 18.2
003BBBCD 2018-10-08 06:06:15 20.9 37 18.3
003BBBCD 2018-10-08 04:58:39 20.9 37 18.3
003BBBCD 2018-10-08 03:51:03 21 37 18.3
003BBBCD 2018-10-08 02:43:30 21 37 18.4
003BBBCD 2018-10-08 01:35:57 21 37 18.4
003BBBCD 2018-10-08 00:28:22 21 37 18.3
003BBBCD 2018-10-07 23:20:48 21 37 18.5
003BBBCD 2018-10-07 22:13:14 21 38 18.7
003BBBCD 2018-10-07 21:05:37 21 38 18.7
003BBBCD 2018-10-07 19:58:04 21 38 19
003BBBCD 2018-10-07 18:50:25 21 38 19
003BBBCD 2018-10-07 17:42:51 21 38 19.2
003BBBCD 2018-10-07 16:35:14 21 38 19.1
003BBBCD 2018-10-07 15:27:36 21 38 19.3
003BBBCD 2018-10-07 14:19:55 21 38 19.2
003BBBCD 2018-10-07 13:12:16 21 38 19.3
003BBBCD 2018-10-07 12:04:37 21 38 19.2
003BBBCD 2018-10-07 10:56:57 21.1 38 19.1
003BBBCD 2018-10-07 09:49:17 21.1 38 19.1
003BBBCD 2018-10-07 08:41:39 21.1 38 18.9
003BBBCD 2018-10-07 07:33:58 21.1 38 19.1
003BBBCD 2018-10-07 06:26:16 21.2 38 19
003BBBCD 2018-10-07 05:18:36 21.2 38 18.8
003BBBCD 2018-10-07 04:10:57 21.2 38 18.6
003BBBCD 2018-10-07 03:03:20 21.2 38 18.7
003BBBCD 2018-10-07 01:55:42 21.2 38 18.3
003BBBCD 2018-10-07 00:48:04 21.2 38 18.2
003BBBCD 2018-10-06 23:40:26 21.2 38 17.9
003BBBCD 2018-10-06 22:32:47 21.2 38 17.5
003BBBCD 2018-10-06 21:25:08 21.3 38 17.6
003BBBCD 2018-10-06 20:17:27 21.3 38 17.6
003BBBCD 2018-10-06 19:09:49 21.3 38 17.3
003BBBCD 2018-10-06 18:02:14 21.3 38 17
003BBBCD 2018-10-06 16:54:43 21.3 38 17
003BBBCD 2018-10-06 15:47:06 21.3 38 16.9
003BBBCD 2018-10-06 14:39:31 21.3 38 17.2
003BBBCD 2018-10-06 13:31:58 21.3 38 17.3
003BBBCD 2018-10-06 12:24:26 21.3 38 17.7
003BBBCD 2018-10-06 11:16:50 21.3 38 17.5
003BBBCD 2018-10-06 10:09:18 21.3 38 17.5
003BBBCD 2018-10-06 09:01:44 21.4 38 17.4
003BBBCD 2018-10-06 07:54:07 21.4 38 17.5
003BBBCD 2018-10-06 06:46:34 21.4 38 17.8
003BBBCD 2018-10-06 05:38:55 21.4 38 17.8
003BBBCD 2018-10-06 04:31:18 21.4 38 18
003BBBCD 2018-10-06 03:23:41 21.4 38 18
003BBBCD 2018-10-06 02:16:06 21.4 38 18.2
003BBBCD 2018-10-06 01:08:30 21.5 38 18.1
003BBBCD 2018-10-06 00:00:54 21.5 38 18.4
003BBBCD 2018-10-05 22:53:19 21.5 38 18.3
003BBBCD 2018-10-05 21:45:45 21.7 38 18.6
003BBBCD 2018-10-05 20:38:06 21.7 38 19
003BBBCD 2018-10-05 19:30:27 21.6 37 18.9
003BBBCD 2018-10-05 18:22:51 21.7 37 18.9
003BBBCD 2018-10-05 17:15:10 21.6 37 18.8
003BBBCD 2018-10-05 16:07:33 21.5 37 18.8
003BBBCD 2018-10-05 14:59:55 21.5 36 18.7
003BBBCD 2018-10-05 13:52:20 21.4 36 18.7
003BBBCD 2018-10-05 12:44:44 21.4 36 18.6
003BBBCD 2018-10-05 11:37:10 21.3 35 20
003BBBCD 2018-10-05 10:29:37 21.2 34 19.9
003BBBCD 2018-10-05 09:21:56 21 32 19.8
003BBBCD 2018-10-05 08:14:19 21 31 19.6
003BBBCD 2018-10-05 07:06:44 21 31 19.5
003BBBCD 2018-10-05 05:59:07 21 31 19.5
003BBBCD 2018-10-05 04:51:31 21 31 19.4
003BBBCD 2018-10-05 03:43:58 21 31 19.4
003BBBCD 2018-10-05 02:36:20 21 32 19.5
003BBBCD 2018-10-05 01:28:42 21 32 19.5
003BBBCD 2018-10-05 00:21:08 21.1 32 19.3
003BBBCD 2018-10-04 23:13:35 21.2 32 19.3
003BBBCD 2018-10-04 22:05:59 21.1 32 19.2
003BBBCD 2018-10-04 20:58:22 21.2 32 19.4
003BBBCD 2018-10-04 19:50:51 21.1 32 19.2
003BBBCD 2018-10-04 18:43:17 21.1 32 19.4
003BBBCD 2018-10-04 17:35:45 21 32 19.5
003BBBCD 2018-10-04 16:28:10 21 33 19.5
003BBBCD 2018-10-04 15:20:36 20.8 33 19.4
003BBBCD 2018-10-04 14:13:00 20.8 33 19.4
003BBBCD 2018-10-04 11:57:51 20.4 33 19.4
003BBBCD 2018-10-04 09:42:36 20.2 33 19.5
003BBBCD 2018-10-04 06:19:49 20.2 37 19.7
003BBBCD 2018-10-04 02:56:54 20.2 38 19.9
003BBBCD 2018-10-03 20:10:56 20.4 41 20.1
003BBBCD 2018-10-03 16:47:57 20.6 44 18.3
003BBBCD 2018-10-03 15:40:15 20.6 44 18.4
003BBBCD 2018-10-03 13:24:57 20.4 42 18.4
003BBBCD 2018-10-03 12:17:14 20.4 40 18.6
003BBBCD 2018-10-03 11:09:31 20.8 41 18.8
003BBBCD 2018-10-03 10:01:47 20.7 40 19
003BBBCD 2018-10-03 08:54:04 20.5 38 19.3
003BBBCD 2018-10-03 07:46:18 20.4 38 19.2
003BBBCD 2018-10-03 06:38:37 20.6 39 18.8
003BBBCD 2018-10-03 05:30:51 20.6 39 19.1
003BBBCD 2018-10-03 04:23:08 20.6 39 19.2
003BBBCD 2018-10-03 03:15:26 20.6 39 19.3
003BBBCD 2018-10-03 02:07:48 20.6 40 19.1
003BBBCD 2018-10-03 01:00:10 20.7 40 18.6
003BBBCD 2018-10-02 23:52:30 20.7 40 18.9
003BBBCD 2018-10-02 22:44:49 20.8 39 18.5
003BBBCD 2018-10-02 21:37:11 20.8 39 17.1
003BBBCD 2018-10-02 20:29:29 20.8 39 12.1
003BBBCD 2018-10-02 19:21:46 20.8 39 13.4
003BBBCD 2018-10-02 18:14:05 20.8 39 14.4
003BBBCD 2018-10-02 17:06:20 20.6 51 0